Location: Street
(51.1247°N, 2.7429°W)
Time: 15:26:37
(UTC+01:00)

UWE-3 - Pass Details

Date: 08 April 2023
Orbit: 576 x 669 km, 97.7° (Epoch: 02 June)

Event Time Altitude Azimuth Distance (km) Brightness Sun altitude
Rises 04:42:32 0° 10° (N) 2,954 ? -16.5°
Reaches altitude 10° 04:44:48 10° 7° (N) 2,025 ? -16.2°
Maximum altitude 04:49:07 56° 289° (WNW) 741 ? -15.7°
Enters shadow 04:51:19 26° 222° (SW) 1,210 ? -15.4°
